DELTA 1 R/B, 3346

Orbit data source: Space-Track

DELTA 1 R/B, 3346 is space debris in SSO originally from a launch on Fri, 16 Aug 1968 UTC launched from the Air Force Western Test Range (AFWTR). Debris objects in space refer to the collection of defunct objects orbiting the Earth. Examples of debris include non-operational satellites, rocket bodies, and fragments generated from explosions, collisions, or faulty payload assembly.

Loading next visibility...
Identifier
3346, 1968-069B
Orbit
SSO
Country
Flag of USUS
Related business
Manufacturer
Aerojet
Mission
Spacecraft
Bus & Motor
ABLESTAR, Unknown motor
Mass
~785 kg wet, ~785 kg dry
Launch date (UTC)
1968-08-16 (57 years ago)
Launch vehicle
Unknown
Launch site
Air Force Western Test Range (AFWTR)
Object type
Payload
Rocket body
Debris
Shape & HBR
Unknown
Radar Cross Section
Large (>1 m²)

Expand to show TLE details & history
Last TLE update: 7 hours ago

TLE from 7 hours ago
0 DELTA 1 R/B
1  3346U 68069B   26036.51973539 -.00000033  00000-0  66349-4 0  9993
2  3346 101.5203   5.1367 0023574 254.9629 222.8273 12.54342596631120
Epoch: 2026-02-05T12:28Z
TLE epoch observation values (Epoch: 2026-02-05T12:28:25.137Z)
Latitude
60.35178°
Longitude
-116.76376°
Altitude
1,470.036 km
Speed
7.127 km/s
True Right ascension
13h 44m 02s
True Declination
60° 13' 02"
Sunlit
Object was in daylight at epoch
Visualization orbit readout
Latitude
Unknown
Longitude
Unknown
Altitude
Unknown
Speed
Unknown
Apparent Right ascension
Unknown
Apparent Declination
Unknown
Sunlit
N/A
Visualization observer readout
Local Sidereal Time
21:09:51
Azimuth
Unknown
Elevation
Unknown
Doppler factor
Unknown
Orbital elements
Apogee altitude
1,462.351 km
Perigee altitude
1,425.472 km
Semi-major axis
7,822.048 km
Eccentricity
0.00236
Inclination
101.5203°
RAAN
5.1367°
Arg. of periapsis
254.9629°
True anomaly
222.64406°
Mean anomaly
222.8273°
Eccentric anomaly
222.73564°
Mean motion
3.13735 °/min
Orbital period
114.75 mins
BSTAR
0.000066349
Loading maneuver chart data...
Computing Atmospheric mass density...
Loading historical data...
Loading historical data...
Loading historical data...
Loading historical data...
Loading historical data...
Loading historical data...
Loading historical data...

Documentation

Showing up to 5 results
|